Погода в Тихвине

Погода в Тихвине : погода сейчас, прогноз погоды и архив. Всё, что Вы хотите узнать о погоде в Тихвине!

Хотите узнать прогноз погоды в Тихвине? Тогда Вам сюда: Погода в Тихвине

Поиск расширенной информации на нашем сайте:

Другие новости

Новости СМИ2

Главная страница сайта

Новости сайта

03.07.2017

Напоминаем, что на нашем специализированном сайте Метеоцентр.Азия вы можете получить высокодетализированные автоматические прогнозы погоды по пунктам России, СНГ и мира в авиационном формате (включающие направление и скорость ветра, видимость, явления погоды, количество и форму облачности, нижнюю и верхнюю границу облачности).


Погода в Тихвине - сегодня

Время (UTC), дата Ветер
(°,м/с) 
Видим.   Явления Облачность Т
(°С)
Тd
(°С)
f(%) Тe
(°С)
Pmin
(гПа)
dP
(гПа)
Po
(мм)
O2
(г/м3)
Тmin Tmax R s Состояние
почвы
15 14.06.18 290 (З) 50000 м    8/3 600 м средняя 
[Cu med, cong|Ac trans]
+21 +0.6 26 +21  1015.3  -0.4  756  283           
21 14.06.18 тихо ()   20000 м    1/0 средняя 
[Ac trans]
+9 +6.2 83 +9  1016.9  757  294           
00 15.06.18 тихо ()   20000 м    3/0 верхняя 
[Ci fib]
+6.3 +5.1 92 +6  1017.4  0.5  757  297           
09 15.06.18 190 (Ю) 40000 м    8/3 1000 м средняя, верхняя 
[Cu hum|Ac trans|Cc]
+20.5 +8.4 46 +21  1018  0.3  758  283           
12 15.06.18 210 (ЮЗ) 40000 м    9/5 600 м кучево-дожд., средняя, верхняя 
[Cb cap|Ac trans|Ci fib]
+22.1 +8.2 41 +22  1017.6  -0.4  758  281           
15 15.06.18 180 (Ю) 40000 м    5/3 1000 м верхняя 
[Sc diur, vesp|Cc]
+22.3 +7.8 39 +22  1017.1  -0.5  757  281           
21 15.06.18 тихо ()   20000 м    1/0 верхняя 
[Ci fib]
+11.9 +8.4 79 +12  1018.5  1.2  758  291           
00 16.06.18 тихо ()   20000 м    9/0 средняя 
[Ac trans]
+11.6 +8.1 79 +12  1019.4  0.9  759  292           
09 16.06.18 250 (З) 50000 м    5/0 верхняя 
[Cc]
+23.6 +5 30 +24  1020.2  0.1  760  281           
12 16.06.18 150 (ЮВ) 50000 м    3/3 600 м верхняя 
[Cu hum|Ci fib]
+25.9 +4.1 25 +26  1019.4  -0.6  759  279           
15 16.06.18 160 (Ю) н/о    н/о 
+25.4 +3.8 25 +25  1018.7  -1.1  759  279           
21 16.06.18 тихо ()   20000 м    8/0 средняя 
[Ac trans]
+12.5 +9.5 82 +13  1019.5  0.5  759  291           
00 17.06.18 070 (В) 20000 м    8/0 средняя, верхняя 
[Ac trans|Cc]
+10.5 +9.2 92 +12  1020  0.5  759  293           
09 17.06.18 220 (ЮЗ) 40000 м    9/4 600 м средняя, верхняя 
[Sc|Ac trans|Cc]
+23.4 +7.6 36 +23  1019.7  -0.3  759  281           
12 17.06.18 290 (З) 40000 м    9/6 600 м средняя 
[Sc|Ac trans]
+22.3 +11 49 +25  1019.1  -0.6  759  281           
15 17.06.18 310 (СЗ) 40000 м    6/0 средняя 
[Ac trans]
+24 +9.5 40 +24  1018  -1.1  758  279           
21 17.06.18 тихо ()   20000 м    9/0 средняя 
[Ac trans]
+16.7 +13 79 +22  1017.7  -0.2  758  285           
00 18.06.18 тихо ()   20000 м    9/0 средняя 
[Ac trans]
+14.8 +12.9 88 +20  1017.4  -0.3  757  287           
09 18.06.18 150 (ЮВ) 40000 м    9/6 1000 м средняя 
[Sc|Ac trans]
+25.7 +9.9 37 +27  1014.4  -0.9  755  276           
12 18.06.18 180 (Ю) 40000 м    9/8 600 м средняя 
[Sc diur, vesp|Ac trans]
+26 +10.3 37 +27  1013.2  -1.2  755  276           
21 18.06.18 тихо ()   2000 м  дымка  3/1 600 м верхняя 
[Sc diur, vesp|Ci fib]
+16.2 +15.7 97 +26  1011.7  -0.3  753  283           
03 19.06.18 тихо ()   7000 м  слаб. дождь  10/0 средняя 
[As op]
+14.3 +13.8 97 +21  1012  753  286  +14.2       
09 19.06.18 230 (ЮЗ) 45000 м    8/6 1000 м верхняя 
[Cu med, cong|Cc]
+19 +10.9 59 +22  1009.2  -1.7  751  281           
12 19.06.18 250 (З) 50000 м    8/4 600 м верхняя 
[Cu med, cong|Cs]
+19.9 +9.2 50 +21  1007.4  -1.7  750  280           
15 19.06.18 220 (ЮЗ) 40000 м    10/0 средняя 
[Ac und]
+19.3 +8.3 49 +20  1004.9  -2.5  748  280      0.1     
Время (UTC), дата Ветер
(°,м/с) 
Видим.   Явления Облачность Т
(°С)
Тd
(°С)
f(%) Тe
(°С)
Pmin
(гПа)
dP
(гПа)
Po
(мм)
O2
(г/м3)
Тmin Tmax R s Состояние
почвы

Для получения пояснительной информации подведите курсор к названию столбца.

ПОГОДА в Тихвине - архив

Всё, что Вы хотите узнать о погоде в Тихвине - удобно и подробно!

Выберите нужную дату (начиная с 1 января 2015* года) и нажмите кнопку "Найти".
Будут отображены архивные сводки погоды по пункту Тихвин, начиная с указанной даты.


Отображать данные в формате CSV (для использования в таблицах Excel)


Внимание! Наш архив погоды предназначен исключительно для личного некоммерческого использования в познавательных целях. Если Вам необходимы официальные справки о состоянии погоды (для производственных, юридических, коммерческих и т.п. целей), обращайтесь в органы Росгидромета.

*Примечание: данная дата относится к архиву по метеостанциям СССР (Россия, СНГ, Балтия).
Архив по метеостанциям Зарубежной Европы и Азии (кроме Китая) хранится 10 дней, по другим регионам земного шара (Китай, Африка, Америка, Австралия, Океания) - 1 день.

Тихвин - район местоположения метеостанции


Название, широта, долгота, высота метеостанции:
Тихвин 59.6°ш. 33.6°д. 61 м над ур. моря [Российская Федерация]

Дополнительная информация

В oтличие oт бoльшинства пoгoдных сайтoв мы публикуем пoдрoбную метеoинфoрмацию в детальнoм прoфессиoнальнoм фoрмате.

Характеристики температуры и влажнoсти вoздуха измеряются на высoте 2 м в тени вдали oт зданий и деревьев.
Скoрoсть ветра измеряется на высoте 10 м (на урoвне рoста челoвека скoрoсть ветра ниже в 1.5-2 раза). Если метеoстанция нахoдится в гoрoде или в лесу, тo скoрoсть ветра занижена на 2-4 м/с пo сравнению с oткрытым местoм. Скoрoсть ветра над акватoриями крупных рек и oзёр, а также на вершинах хoлмoв на 2-5 м/с выше, чем в oбычных услoвиях.
Атмoсфернoе давление в разных тoчках местнoсти мoжет значительнo oтличаться oт давления на метеoстанции, в зависимoсти oт услoвий рельефа (при пoдъёме на 10 м давление пoнижается примернo на 1 мм рт.ст.).